User: anonymous   Login
Location: Unspecified
(0.0000°N, 0.0000°E)
Time: 14:07:54
(UTC+00:00)
Language:

Intelsat V F6 - Orbit

View from above orbital plane
View from above orbital plane
View from above satellite
View from above satellite

Ground track
Ground track

The orbit data is extracted from the following two-line orbital elements,

1 14077U 83047A   18114.11140177 -.00000102 +00000-0 +00000-0 0  9992
2 14077 015.2280 358.1874 0039242 269.2377 259.5154 00.99159631094570
Epoch (UTC): 24 April 2018 02:40:25
Eccentricity: 0.0039242
inclination: 15.2280°
perigee height: 35934 km
apogee height: 36267 km
right ascension of ascending node: 358.1874°
argument of perigee: 269.2377°
revolutions per day: 0.99159631
mean anomaly at epoch: 259.5154°
orbit number at epoch: 9457

The dashed part of the orbit path shows where the satellite is in the earth's shadow,  

DLR